Location: Newark
(49.1939°N, 0.8136°E)
Time: 06:52:26
(UTC+00:00)

Envisat - Pass Details

Date: 22 November 2019
Orbit: 764 x 766 km, 98.1° (Epoch: 06 December)

Event Time Altitude Azimuth Distance (km) Brightness Sun altitude
Rises 17:05:37 0° 144° (SE) 3,222 6.1 -9.3°
Reaches altitude 10° 17:07:59 10° 138° (SE) 2,300 5.3 -9.7°
Maximum altitude 17:12:46 44° 68° (ENE) 1,059 3.3 -10.4°
Drops below altitude 10° 17:17:35 10° 357° (N) 2,314 5.3 -11.2°
Sets 17:19:58 0° 351° (N) 3,245 6.2 -11.5°
